[[{"header":{"parameterUnit":"m.s-1","parameterCategory":2,"la1":30.2991,"la2":30.254,"lo1":-89.0895,"lo2":-89.0444,"dy":0.0017,"dx":0.0017,"nx":28,"ny":28,"refTime":"2024-05-26T09:00:00:Z","depth":"0","parameterNumber":2,"parameterNumberName":"U-component_of_CURRENTS"},"data":[0,0,0,0,0,0,0,0,0,0,0,0,0,0,0,0,0,0,0,0,0,0,0,0,0,0,0,0,0,0,0,0,0,0,0,0,0,0,0,0,0,0,0,0,0,0,0,0,0,0,0,0,0,0,0,0,0,0,0.3751,0.3753,0,0.3868,0.3869,0.387,0.3823,0.3821,0.3818,0.3816,0.3886,0.389,0.3894,0,0,0,0,0,0,0,0,0,0,0,0,0,0.3529,0.3533,0.3751,0.3753,0.3755,0.3868,0.3869,0.387,0.3823,0.3821,0.3818,0.3815,0.3885,0.389,0.3894,0,0,0,0,0,0,0,0,0,0,0,0,0,0.3628,0.3534,0.3751,0.375,0.3751,0.3868,0.3869,0.387,0.3824,0.382,0.3817,0.3814,0.3883,0.3889,0.3895,0.3997,0,0,0.3913,0.3915,0,0,0,0,0,0,0,0,0.3622,0.3635,0.3748,0.375,0.3752,0.3833,0.3817,0.3913,0.3825,0.379,0.3816,0.3812,0.3871,0.3877,0.3899,0.4,0.4003,0.3913,0.3917,0.3919,0.3921,0,0,0,0,0,0,0,0.3616,0.3631,0.3791,0.3751,0.3753,0.3759,0.3768,0.3835,0.3842,0.3793,0.3791,0.3815,0.387,0.3893,0.39,0.4004,0.3913,0.3918,0.3922,0.3924,0.4301,0.4307,0,0,0,0,0,0,0.3616,0.3625,0.3788,0.3795,0.3685,0.3766,0.3776,0.3805,0.3842,0.3847,0.3818,0.3812,0.3885,0.3893,0.3902,0.4113,0.3919,0.3925,0.3928,0.4294,0.4302,0.4309,0,0,0,0,0,0,0.3611,0.363,0.3783,0.3716,0.3737,0.3773,0.3807,0.381,0.3841,0.3863,0.3864,0.3847,0.3882,0.3894,0.4026,0.4111,0.3928,0.3933,0.4287,0.4297,0.4306,0.4479,0,0,0,0,0,0,0.3604,0.3627,0.3658,0.3717,0.3741,0.3888,0.3811,0.3814,0.3863,0.3857,0.389,0.3891,0.3881,0.4018,0.4032,0.4116,0.3937,0.4279,0.4291,0.4303,0.4465,0.4493,0.4517,0,0,0,0,0,0.3596,0.3674,0.3659,0.3679,0.3779,0.3893,0.3907,0.3915,0.3868,0.3921,0.396,0.3891,0.4103,0.403,0.4044,0.4131,0.4273,0.4288,0.4302,0.4453,0.4488,0.4517,0,0,0,0,0,0,0.3596,0.3679,0.3663,0.3759,0.3828,0.3887,0.3949,0.3939,0.4008,0.4005,0.3987,0.3999,0.4141,0.4136,0.4054,0.4282,0.4173,0.4191,0.4283,0.4316,0.4341,0.43,0.3942,0,0,0,0,0,0.3611,0.3687,0.3754,0.3833,0.3874,0.3908,0.3953,0.3965,0.403,0.4053,0.408,0.4131,0.4217,0.4262,0.433,0.4467,0.444,0.4533,0.456,0.4581,0.4565,0.4618,0.4645,0.4357,0.4357,0.4357,0,0,0.3625,0.3689,0.3724,0.3838,0.3886,0.3987,0.3927,0.4028,0.4104,0.4058,0.4183,0.4228,0.4278,0.443,0.4492,0.4432,0.4667,0.46,0.4618,0.4588,0.4636,0.4663,0.4687,0.4367,0.4365,0.4364,0,0,0.3721,0.3759,0.3855,0.3925,0.4029,0.407,0.4104,0.4187,0.4216,0.4362,0.4345,0.4448,0.4576,0.4626,0.4667,0.4888,0.4804,0.4914,0.5011,0.5066,0.5088,0.5107,0.5158,0.5179,0.4925,0.4926,0.4926,0,0.3725,0.3848,0.3903,0.4016,0.4074,0.4112,0.4213,0.4285,0.4398,0.4431,0.4429,0.4617,0.4669,0.4817,0.4908,0.4941,0.4949,0.4878,0.5093,0.5111,0.5127,0.5174,0.5195,0.4936,0.4935,0.4934,0.4933,0,0.3895,0.3977,0.4052,0.419,0.4274,0.4378,0.4469,0.4554,0.4594,0.4636,0.4785,0.4875,0.4955,0.5027,0.5047,0.5198,0.5164,0.5115,0.4991,0.5165,0.5206,0.5225,0.495,0.4947,0.4944,0.4941,0,0,0.3918,0.4119,0.4137,0.4184,0.4358,0.4429,0.4592,0.4713,0.4771,0.4901,0.498,0.5175,0.5159,0.5207,0.5238,0.5319,0.5488,0.5281,0.5279,0.5294,0.5613,0.5468,0.5474,0.5466,0.547,0.5472,0.5612,0,0.4009,0.4201,0.4297,0.4447,0.4534,0.4614,0.474,0.4852,0.4945,0.5046,0.5131,0.5237,0.5245,0.5293,0.5381,0.5461,0.5538,0.5453,0.5474,0.5474,0.5292,0.5491,0.518,0.5266,0.563,0.5633,0.5635,0,0.4132,0.4234,0.4391,0.4513,0.4556,0.4653,0.4794,0.4917,0.5073,0.5141,0.5246,0.5293,0.5458,0.5421,0.561,0.5554,0.5595,0.5645,0.565,0.5448,0.5363,0.5148,0.5285,0.5184,0.5663,0.566,0.5658,0,0.4094,0.4281,0.4384,0.4437,0.4613,0.467,0.4764,0.4926,0.5026,0.5185,0.5271,0.5408,0.5507,0.5591,0.5709,0.5668,0.5889,0.5827,0.5729,0.5719,0.542,0.5377,0.5412,0.5928,0.5928,0.5927,0.5927,0,0.4146,0.4217,0.4352,0.4404,0.4501,0.4624,0.4746,0.486,0.503,0.5145,0.5286,0.5397,0.5557,0.5692,0.5752,0.5816,0.5916,0.5773,0.5754,0.5481,0.5443,0.5305,0.5268,0.5932,0.5931,0.593,0.5929,0,0.411,0.4209,0.4311,0.4451,0.4492,0.4556,0.4738,0.482,0.4994,0.5156,0.5214,0.5441,0.5605,0.5741,0.5908,0.5867,0.5766,0.5917,0.559,0.5527,0.5268,0.5251,0.5065,0.4929,0.5817,0.5815,0.5813,0,0.411,0.4166,0.4309,0.4352,0.4414,0.4524,0.4603,0.4787,0.4879,0.5165,0.5223,0.5449,0.5552,0.5754,0.5722,0.5773,0.5683,0.5517,0.5365,0.5239,0.5209,0.5051,0.494,0.5076,0.5068,0.5062,0.5056,0,0.4085,0.4136,0.4212,0.4309,0.4377,0.4473,0.4584,0.4656,0.4867,0.4988,0.515,0.5259,0.5422,0.5327,0.5397,0.5387,0.5221,0.5378,0.533,0.4704,0.4448,0.431,0.5026,0.4997,0.5003,0.5007,0.5011,0.5013,0.4029,0.4074,0.4162,0.4229,0.4303,0.436,0.4359,0.4487,0.4586,0.4673,0.4912,0.4923,0.4979,0.4996,0.4974,0.4734,0.4795,0.4576,0.4598,0.4477,0.4223,0.4813,0.47,0.4704,0.4707,0.471,0.4713,0,0.3913,0.3986,0.4068,0.411,0.409,0.4196,0.4275,0.4219,0.4209,0.4355,0.4412,0.4387,0.4283,0.4318,0.4166,0.4002,0.3816,0.3923,0.3645,0.3602,0.4194,0.4038,0.3672,0.3672,0.3672,0.3672,0.3672,0.3673,0.3857,0.3875,0.3917,0.3839,0.3855,0.3755,0.374,0.3719,0.3754,0.3678,0.3613,0.3701,0.3886,0.3844,0.3653,0.3553,0.3346,0.3109,0.3243,0.3686,0.3748,0.3808,0.3655,0.3215,0.3214,0.2424,0.2419,0.2414]},{"header":{"parameterUnit":"m.s-1","parameterCategory":2,"la1":30.2991,"la2":30.254,"lo1":-89.0895,"lo2":-89.0444,"dy":0.0017,"dx":0.0017,"nx":28,"ny":28,"refTime":"2024-05-26T09:00:00:Z","depth":"0","parameterNumber":3,"parameterNumberName":"V-component_of_CURRENTS"},"data":[0,0,0,0,0,0,0,0,0,0,0,0,0,0,0,0,0,0,0,0,0,0,0,0,0,0,0,0,0,0,0,0,0,0,0,0,0,0,0,0,0,0,0,0,0,0,0,0,0,0,0,0,0,0,0,0,0,0,-0.008,-0.008,0,-0.0092,-0.0093,-0.0093,-0.012,-0.012,-0.0121,-0.0121,-0.0189,-0.0191,-0.0192,0,0,0,0,0,0,0,0,0,0,0,0,0,-0.0054,-0.0055,-0.0081,-0.008,-0.008,-0.0092,-0.0093,-0.0093,-0.012,-0.012,-0.0121,-0.0121,-0.0189,-0.0191,-0.0193,0,0,0,0,0,0,0,0,0,0,0,0,0,-0.0068,-0.0055,-0.0081,-0.0093,-0.0095,-0.0092,-0.0093,-0.0093,-0.012,-0.012,-0.0121,-0.0121,-0.0188,-0.0191,-0.0193,-0.0196,0,0,-0.02,-0.0201,0,0,0,0,0,0,0,0,-0.0067,-0.007,-0.0092,-0.0093,-0.0094,-0.0103,-0.0108,-0.013,-0.012,-0.0113,-0.0121,-0.0121,-0.0164,-0.0168,-0.0172,-0.02,-0.0203,-0.02,-0.0201,-0.0202,-0.0203,0,0,0,0,0,0,0,-0.0067,-0.0069,-0.0088,-0.0091,-0.0093,-0.0089,-0.0092,-0.0112,-0.0138,-0.0113,-0.0115,-0.0112,-0.0165,-0.0169,-0.0174,-0.0204,-0.02,-0.0202,-0.0203,-0.0204,-0.0185,-0.0183,0,0,0,0,0,0,-0.0061,-0.0068,-0.0087,-0.0088,-0.0079,-0.0089,-0.0093,-0.0101,-0.0137,-0.0141,-0.0112,-0.0113,-0.0165,-0.0171,-0.0176,-0.0129,-0.0202,-0.0204,-0.0206,-0.0186,-0.0184,-0.0182,0,0,0,0,0,0,-0.0061,-0.0063,-0.0087,-0.0075,-0.0078,-0.0089,-0.0099,-0.0101,-0.0105,-0.0134,-0.0141,-0.0112,-0.0166,-0.0173,-0.0177,-0.0135,-0.0205,-0.0207,-0.0189,-0.0186,-0.0183,-0.007,0,0,0,0,0,0,-0.006,-0.0063,-0.0069,-0.0076,-0.0078,-0.0066,-0.0098,-0.0101,-0.0102,-0.0104,-0.0137,-0.0144,-0.0167,-0.0173,-0.0179,-0.0139,-0.0209,-0.0191,-0.0187,-0.0184,-0.0076,-0.0064,-0.0053,0,0,0,0,0,-0.006,-0.0055,-0.0069,-0.0071,-0.0086,-0.0065,-0.0065,-0.0077,-0.0101,-0.0087,-0.0111,-0.0143,-0.0155,-0.0174,-0.0181,-0.0141,-0.0193,-0.0188,-0.0184,-0.0082,-0.0066,-0.0054,0,0,0,0,0,0,-0.004,-0.0058,-0.0073,-0.0074,-0.0064,-0.0068,-0.0057,-0.0073,-0.0082,-0.0088,-0.0129,-0.0136,-0.0122,-0.0148,-0.0168,-0.0123,-0.0175,-0.0172,-0.0095,-0.0081,-0.007,-0.0037,-0.0211,0,0,0,0,0,-0.004,-0.0046,-0.0051,-0.0048,-0.0043,-0.0054,-0.005,-0.0054,-0.0061,-0.0067,-0.0091,-0.0109,-0.011,-0.011,-0.0123,-0.0104,-0.0129,-0.0079,-0.0067,-0.0058,-0.0034,-0.0047,-0.0034,-0.0168,-0.0168,-0.0168,0,0,-0.0032,-0.0041,-0.0045,-0.0044,-0.0042,-0.0004,-0.0053,-0.0034,0.0001,-0.0073,-0.0045,-0.0078,-0.0099,-0.007,-0.0065,-0.0086,-0.0031,-0.0052,-0.0043,-0.0025,-0.0041,-0.0028,-0.0017,-0.0165,-0.0166,-0.0166,0,0,0.0014,-0.0023,0.0003,0.0016,0.0029,0.0029,0.0037,0.0036,0.0038,0.0061,0.002,0.0018,0.0008,0.0012,0.0011,0.0077,0.0023,0.0069,0.0162,0.015,0.0161,0.017,0.016,0.0168,0.0083,0.0083,0.0084,0,0.003,0.0056,0.0019,0.0062,0.0085,0.005,0.0107,0.0112,0.0111,0.0122,0.009,0.0089,0.006,0.0107,0.0134,0.0106,0.0084,0.011,0.0165,0.0173,0.0181,0.0169,0.0175,0.0089,0.0089,0.0088,0.0087,0,0.011,0.0132,0.0154,0.0191,0.0209,0.0249,0.0256,0.027,0.0257,0.0257,0.0282,0.0245,0.0248,0.0241,0.021,0.0259,0.022,0.0172,0.013,0.0201,0.0184,0.0189,0.0098,0.0096,0.0094,0.0092,0,0,0.0158,0.02,0.0214,0.0253,0.0279,0.0311,0.0364,0.0407,0.0445,0.0433,0.0483,0.0476,0.0432,0.043,0.0383,0.0379,0.0407,0.0309,0.0305,0.0301,0.0382,0.0337,0.0338,0.0359,0.0361,0.0362,0.035,0,0.0244,0.0342,0.0339,0.0443,0.0495,0.0481,0.0536,0.0562,0.0565,0.0599,0.0567,0.0589,0.0513,0.0514,0.05,0.0434,0.0425,0.0415,0.0312,0.031,0.0263,0.0344,0.0341,0.0328,0.0354,0.0355,0.0355,0,0.0342,0.039,0.0499,0.0568,0.059,0.0641,0.0708,0.0757,0.0783,0.078,0.0785,0.0742,0.0755,0.0663,0.0607,0.06,0.0508,0.0445,0.0441,0.0368,0.0276,0.026,0.0336,0.0159,0.0362,0.0362,0.0361,0,0.0417,0.0509,0.0595,0.0622,0.069,0.0735,0.0776,0.0813,0.0872,0.0897,0.0936,0.0904,0.0918,0.081,0.0687,0.0645,0.0608,0.0526,0.0401,0.0395,0.036,0.035,0.0257,0.0476,0.0476,0.0476,0.0476,0,0.0517,0.0592,0.0634,0.0688,0.0795,0.081,0.0924,0.0949,0.1008,0.1111,0.1038,0.1115,0.0954,0.0909,0.0753,0.0619,0.0659,0.0446,0.0401,0.0399,0.0393,0.0208,0.0101,0.0475,0.0476,0.0476,0.0476,0,0.0605,0.0632,0.0733,0.0805,0.0838,0.0916,0.103,0.111,0.1145,0.1281,0.1302,0.1295,0.1244,0.1066,0.0909,0.0729,0.0474,0.0507,0.0519,0.0476,0.0169,0.007,-0.0075,-0.0147,0.0371,0.037,0.0369,0,0.0665,0.0724,0.082,0.0886,0.0927,0.1036,0.1121,0.1178,0.1273,0.1417,0.1498,0.1487,0.1524,0.1271,0.0945,0.0668,0.0477,0.0447,0.0358,0.0181,0.0038,-0.0047,-0.0102,0.0357,0.0356,0.0356,0.0355,0,0.0777,0.0797,0.0878,0.1007,0.1101,0.1216,0.1341,0.1433,0.1537,0.1667,0.1835,0.1882,0.1642,0.1375,0.0958,0.0747,0.0315,0.042,0.0241,0.0037,-0.0061,-0.0161,0.0331,0.0349,0.0349,0.035,0.035,0.035,0.0858,0.0927,0.1023,0.1149,0.1254,0.1391,0.1499,0.1647,0.1837,0.2047,0.2082,0.2179,0.1755,0.1202,0.0885,0.027,0.0262,0.0064,-0.0034,-0.0097,-0.0188,0.0293,0.0249,0.0249,0.0249,0.0249,0.0249,0,0.0977,0.105,0.1166,0.1308,0.1427,0.1458,0.1648,0.1768,0.2007,0.2207,0.2366,0.2217,0.1697,0.1136,0.031,-0.0115,-0.0255,-0.0336,-0.0453,-0.0482,-0.0044,-0.0068,-0.0186,-0.0186,-0.0186,-0.0186,-0.0186,-0.0186,0.1047,0.118,0.123,0.1434,0.1524,0.1677,0.1779,0.1979,0.2142,0.2385,0.2449,0.2478,0.2066,0.0639,-0.0324,-0.0538,-0.0788,-0.0873,-0.0991,-0.0704,-0.0674,-0.0645,-0.0692,-0.0939,-0.094,-0.1376,-0.1381,-0.1385]}],[{"header":{"parameterUnit":"m.s-1","parameterCategory":2,"la1":30.2991,"la2":30.254,"lo1":-89.0895,"lo2":-89.0444,"dy":0.0017,"dx":0.0017,"nx":28,"ny":28,"refTime":"2024-05-26T09:00:00:Z","depth":"2","parameterNumber":2,"parameterNumberName":"U-component_of_CURRENTS"},"data":[0,0,0,0,0,0,0,0,0,0,0,0,0,0,0,0,0,0,0,0,0,0,0,0,0,0,0,0,0,0,0,0,0,0,0,0,0,0,0,0,0,0,0,0,0,0,0,0,0,0,0,0,0,0,0,0,0,0,0.3032,0.3033,0,0.3126,0.3127,0.3128,0.312,0.3119,0.3118,0.3117,0.3155,0.3157,0.3159,0,0,0,0,0,0,0,0,0,0,0,0,0,0.2962,0.2962,0.3031,0.3033,0.3034,0.3126,0.3127,0.3128,0.312,0.3119,0.3118,0.3116,0.3155,0.3157,0.316,0,0,0,0,0,0,0,0,0,0,0,0,0,0.3014,0.2962,0.3031,0.3044,0.3046,0.3126,0.3127,0.3128,0.3121,0.3119,0.3117,0.3116,0.3154,0.3157,0.316,0.3213,0,0,0.3169,0.3171,0,0,0,0,0,0,0,0,0.3011,0.3016,0.3041,0.3043,0.3046,0.3113,0.3117,0.3155,0.3121,0.3089,0.3117,0.3115,0.3139,0.3143,0.3161,0.3215,0.3217,0.317,0.3172,0.3173,0.3174,0,0,0,0,0,0,0,0.3007,0.3013,0.3066,0.3043,0.3046,0.3086,0.309,0.3125,0.3119,0.3092,0.3092,0.3109,0.314,0.3158,0.3162,0.3217,0.317,0.3172,0.3174,0.3176,0.3422,0.3426,0,0,0,0,0,0,0.2998,0.3009,0.3063,0.3069,0.3028,0.3088,0.3093,0.309,0.312,0.3124,0.311,0.3108,0.3154,0.3158,0.3163,0.3336,0.3173,0.3176,0.3178,0.3417,0.3423,0.3428,0,0,0,0,0,0,0.2996,0.3001,0.3059,0.3045,0.3055,0.3091,0.3089,0.3093,0.3133,0.3135,0.3137,0.3147,0.3153,0.3159,0.3257,0.3333,0.3177,0.318,0.3412,0.3419,0.3425,0.3612,0,0,0,0,0,0,0.2993,0.2999,0.3017,0.3044,0.3056,0.3134,0.3091,0.3096,0.3146,0.3144,0.3168,0.3168,0.3152,0.3253,0.326,0.3334,0.3183,0.3406,0.3415,0.3423,0.36,0.3625,0.3646,0,0,0,0,0,0.299,0.3023,0.3017,0.3025,0.307,0.3137,0.3148,0.3165,0.3149,0.3189,0.3227,0.3168,0.3312,0.3261,0.3268,0.3344,0.3401,0.3412,0.3422,0.359,0.362,0.3645,0,0,0,0,0,0,0.3005,0.3026,0.302,0.3057,0.3104,0.3137,0.3187,0.3189,0.325,0.3262,0.324,0.3248,0.3364,0.3336,0.3279,0.3442,0.3342,0.3355,0.3467,0.3495,0.3518,0.348,0.3185,0,0,0,0,0,0.3015,0.3045,0.3072,0.311,0.3136,0.3165,0.3201,0.3219,0.3267,0.3291,0.3294,0.333,0.3412,0.3438,0.3486,0.3576,0.3544,0.3627,0.365,0.3669,0.3646,0.3725,0.3752,0.3462,0.3462,0.3462,0,0,0.3031,0.3052,0.3067,0.3118,0.3154,0.3216,0.3183,0.3262,0.3316,0.3289,0.3366,0.3418,0.3461,0.3577,0.3621,0.3559,0.3738,0.3683,0.3699,0.3664,0.3739,0.3766,0.3791,0.3469,0.3468,0.3467,0,0,0.3099,0.3099,0.3156,0.319,0.3263,0.329,0.3318,0.3364,0.339,0.351,0.3503,0.3599,0.3694,0.3727,0.3768,0.3943,0.387,0.3961,0.4033,0.4113,0.4137,0.4157,0.4155,0.4174,0.3958,0.3958,0.3958,0,0.3123,0.3177,0.319,0.3252,0.3303,0.3324,0.3408,0.3443,0.3514,0.3558,0.3565,0.3739,0.3771,0.3904,0.3974,0.3992,0.3997,0.3928,0.4141,0.416,0.4177,0.4171,0.4189,0.3968,0.3967,0.3966,0.3965,0,0.3218,0.327,0.3312,0.3386,0.3453,0.3528,0.3578,0.3625,0.3682,0.3729,0.3879,0.3945,0.4028,0.4082,0.4098,0.4233,0.4184,0.4174,0.4064,0.4218,0.4201,0.4217,0.3983,0.3979,0.3976,0.3974,0,0,0.3239,0.3356,0.3367,0.3402,0.3528,0.3565,0.3689,0.3794,0.3836,0.3951,0.4045,0.4217,0.422,0.4262,0.4273,0.4346,0.4496,0.4319,0.4318,0.4301,0.4628,0.4488,0.4489,0.4539,0.4543,0.4546,0.4567,0,0.3313,0.3428,0.3496,0.3603,0.3663,0.3724,0.3814,0.391,0.4003,0.4077,0.4187,0.4294,0.4294,0.4351,0.4433,0.4501,0.4544,0.4486,0.4492,0.449,0.4335,0.4506,0.4167,0.415,0.4581,0.4583,0.4585,0,0.3373,0.3446,0.3578,0.3671,0.3702,0.3773,0.3891,0.3977,0.411,0.4192,0.432,0.4376,0.4517,0.4488,0.4643,0.4615,0.462,0.465,0.4652,0.4453,0.4379,0.4067,0.4159,0.4609,0.4607,0.4605,0.4604,0,0.3342,0.3477,0.3577,0.361,0.3744,0.3807,0.3882,0.4022,0.411,0.4252,0.4353,0.4488,0.459,0.4662,0.4738,0.4712,0.4881,0.4842,0.4692,0.4679,0.4349,0.43,0.4908,0.4908,0.4908,0.4908,0.4908,0,0.3364,0.342,0.3545,0.3579,0.3671,0.3779,0.3893,0.3971,0.414,0.4248,0.4384,0.4479,0.4654,0.4764,0.4782,0.48,0.4916,0.4716,0.4699,0.4405,0.4364,0.4716,0.4694,0.4909,0.4909,0.4909,0.4909,0,0.3312,0.3403,0.3487,0.362,0.3662,0.3719,0.3902,0.3959,0.4132,0.4282,0.4349,0.455,0.4679,0.4788,0.4913,0.4851,0.4878,0.4824,0.4433,0.4369,0.459,0.4578,0.4656,0.4651,0.4648,0.4645,0.4642,0,0.3303,0.335,0.3481,0.3529,0.3595,0.3702,0.3775,0.3948,0.4043,0.4291,0.4354,0.4542,0.4588,0.472,0.4702,0.4688,0.4794,0.4321,0.4201,0.46,0.4577,0.4569,0.4562,0.3832,0.3824,0.3816,0.381,0,0.3279,0.3323,0.3392,0.3492,0.3563,0.3639,0.3763,0.3811,0.4006,0.4114,0.423,0.4284,0.4422,0.4273,0.4293,0.4234,0.4308,0.4166,0.4738,0.3952,0.3827,0.3803,0.3822,0.3745,0.3752,0.3756,0.376,0.3763,0.3249,0.3281,0.3364,0.3419,0.3507,0.3521,0.3494,0.361,0.3676,0.3733,0.394,0.3897,0.3972,0.3811,0.3701,0.3645,0.3923,0.3731,0.3753,0.3783,0.3687,0.3564,0.341,0.3414,0.3418,0.3421,0.3424,0,0.3176,0.3203,0.3278,0.3314,0.3304,0.3409,0.3437,0.3336,0.3267,0.3403,0.3436,0.3172,0.3077,0.317,0.298,0.296,0.2925,0.283,0.2765,0.2834,0.2895,0.2752,0.2227,0.2223,0.2219,0.2215,0,0,0.3132,0.313,0.3137,0.3061,0.3099,0.3008,0.2952,0.2834,0.2853,0.2711,0.27,0.2915,0.3068,0.2606,0.2552,0.2356,0.2567,0.2258,0.3229,0.3223,0.3277,0.3438,0.33,0,0,0,0,0]},{"header":{"parameterUnit":"m.s-1","parameterCategory":2,"la1":30.2991,"la2":30.254,"lo1":-89.0895,"lo2":-89.0444,"dy":0.0017,"dx":0.0017,"nx":28,"ny":28,"refTime":"2024-05-26T09:00:00:Z","depth":"2","parameterNumber":3,"parameterNumberName":"V-component_of_CURRENTS"},"data":[0,0,0,0,0,0,0,0,0,0,0,0,0,0,0,0,0,0,0,0,0,0,0,0,0,0,0,0,0,0,0,0,0,0,0,0,0,0,0,0,0,0,0,0,0,0,0,0,0,0,0,0,0,0,0,0,0,0,-0.0139,-0.0139,0,-0.0145,-0.0145,-0.0146,-0.0176,-0.0176,-0.0177,-0.0177,-0.0245,-0.0247,-0.0248,0,0,0,0,0,0,0,0,0,0,0,0,0,-0.0126,-0.0127,-0.0139,-0.0139,-0.0139,-0.0145,-0.0145,-0.0146,-0.0175,-0.0176,-0.0177,-0.0177,-0.0245,-0.0246,-0.0248,0,0,0,0,0,0,0,0,0,0,0,0,0,-0.0134,-0.0127,-0.0139,-0.0153,-0.0155,-0.0145,-0.0145,-0.0146,-0.0175,-0.0176,-0.0177,-0.0178,-0.0244,-0.0246,-0.0248,-0.0243,0,0,-0.0254,-0.0255,0,0,0,0,0,0,0,0,-0.0133,-0.0134,-0.0151,-0.0152,-0.0154,-0.0159,-0.0166,-0.0181,-0.0175,-0.0169,-0.0177,-0.0178,-0.0221,-0.0224,-0.0225,-0.0247,-0.025,-0.0254,-0.0256,-0.0256,-0.0257,0,0,0,0,0,0,0,-0.0133,-0.0134,-0.0143,-0.0151,-0.0153,-0.015,-0.0152,-0.0168,-0.0193,-0.017,-0.0172,-0.0169,-0.0222,-0.0223,-0.0227,-0.0251,-0.0254,-0.0256,-0.0257,-0.0258,-0.0264,-0.0263,0,0,0,0,0,0,-0.0129,-0.0134,-0.0143,-0.0143,-0.0143,-0.0149,-0.0152,-0.0158,-0.0191,-0.0196,-0.0169,-0.0171,-0.0219,-0.0225,-0.023,-0.0203,-0.0256,-0.0258,-0.0259,-0.0265,-0.0264,-0.0263,0,0,0,0,0,0,-0.0129,-0.013,-0.0143,-0.0137,-0.0138,-0.0149,-0.0155,-0.0157,-0.0161,-0.0189,-0.0196,-0.0169,-0.022,-0.0227,-0.0238,-0.0208,-0.0259,-0.0261,-0.0266,-0.0265,-0.0263,-0.0166,0,0,0,0,0,0,-0.0129,-0.013,-0.0134,-0.0137,-0.0138,-0.0123,-0.0154,-0.0157,-0.0157,-0.016,-0.0192,-0.0199,-0.0222,-0.0235,-0.024,-0.0211,-0.0262,-0.0267,-0.0265,-0.0264,-0.017,-0.0161,-0.0153,0,0,0,0,0,-0.0128,-0.0118,-0.0134,-0.0135,-0.0143,-0.0121,-0.0121,-0.0133,-0.0156,-0.0143,-0.0172,-0.0198,-0.0226,-0.0235,-0.0242,-0.0213,-0.0268,-0.0266,-0.0264,-0.0174,-0.0163,-0.0154,0,0,0,0,0,0,-0.0108,-0.012,-0.0138,-0.0132,-0.0125,-0.0126,-0.0114,-0.0129,-0.0141,-0.0149,-0.0188,-0.0196,-0.0195,-0.0219,-0.0228,-0.021,-0.0251,-0.0249,-0.018,-0.017,-0.0162,-0.0126,-0.0264,0,0,0,0,0,-0.0107,-0.0109,-0.0113,-0.0107,-0.0101,-0.0111,-0.0107,-0.0113,-0.0122,-0.0128,-0.0154,-0.0178,-0.0188,-0.0192,-0.021,-0.0199,-0.0226,-0.0185,-0.0176,-0.0169,-0.0145,-0.0162,-0.0152,-0.0255,-0.0255,-0.0255,0,0,-0.0099,-0.0104,-0.0107,-0.0103,-0.0101,-0.0069,-0.011,-0.0092,-0.0067,-0.0134,-0.0119,-0.0154,-0.0182,-0.0168,-0.0169,-0.0185,-0.0156,-0.0166,-0.0159,-0.0139,-0.0159,-0.0148,-0.014,-0.0254,-0.0254,-0.0254,0,0,-0.0052,-0.0084,-0.0056,-0.0047,-0.0035,-0.0038,-0.0032,-0.0033,-0.0036,-0.0024,-0.0068,-0.0079,-0.0099,-0.0104,-0.011,-0.0065,-0.0117,-0.0081,-0.0,-0.0017,-0.0009,-0.0001,-0.0032,-0.0028,-0.0069,-0.0069,-0.0069,0,-0.0038,-0.001,-0.0041,-0.0001,0.0017,-0.002,0.0031,0.0028,0.0021,0.0028,-0.0005,-0.0025,-0.0057,-0.0029,-0.0014,-0.0042,-0.0072,-0.0035,-0.0005,0.0002,0.0008,-0.0026,-0.0022,-0.0064,-0.0065,-0.0065,-0.0066,0,0.0038,0.0061,0.0084,0.0113,0.0127,0.0163,0.0159,0.0166,0.0146,0.014,0.0149,0.0104,0.0099,0.0082,0.0051,0.0081,0.0037,0.0002,-0.0027,0.0024,-0.0015,-0.0013,-0.0057,-0.0059,-0.006,-0.0061,0,0,0.0083,0.0128,0.014,0.0175,0.0189,0.0217,0.0253,0.0284,0.0315,0.0287,0.0328,0.03,0.0259,0.025,0.0199,0.0185,0.019,0.0119,0.0116,0.0097,0.0138,0.0095,0.0091,0.0152,0.0153,0.0154,0.0091,0,0.0161,0.0258,0.0254,0.0344,0.0393,0.0371,0.0412,0.0425,0.0418,0.044,0.0396,0.0407,0.0328,0.0326,0.0301,0.0224,0.02,0.021,0.0086,0.0083,0.0044,0.0094,0.0121,0.0067,0.0092,0.0092,0.0092,0,0.025,0.0302,0.0402,0.0466,0.0486,0.0523,0.0574,0.0613,0.0622,0.0615,0.0607,0.0557,0.0546,0.0461,0.037,0.0375,0.0272,0.0199,0.0194,0.0127,0.0043,0.0021,0.0068,0.0094,0.0093,0.0093,0.0093,0,0.032,0.0409,0.049,0.0512,0.0573,0.0609,0.0643,0.0666,0.0721,0.0729,0.0764,0.0706,0.0703,0.0581,0.0429,0.04,0.0312,0.0248,0.0109,0.0103,0.0092,0.0084,0.0179,0.0179,0.0179,0.0179,0.0179,0,0.0412,0.0483,0.0526,0.0577,0.0677,0.0685,0.0789,0.0808,0.0857,0.0949,0.0863,0.0915,0.0733,0.0655,0.0486,0.0318,0.0355,0.0143,0.0096,0.0124,0.012,0.0115,0.0109,0.0177,0.0177,0.0178,0.0178,0,0.0493,0.0521,0.062,0.0689,0.0718,0.0792,0.0901,0.0974,0.1003,0.1122,0.1138,0.1088,0.0985,0.0781,0.0586,0.041,0.0237,0.0155,0.0193,0.0153,0.0018,0.0017,0.0002,0.0,-0.0001,-0.0002,-0.0003,0,0.0549,0.0604,0.0705,0.0771,0.0807,0.0913,0.0993,0.1047,0.114,0.1244,0.1316,0.1245,0.1211,0.0896,0.0588,0.0286,0.0233,0.0087,0.0036,0.005,0.0006,0.0007,0.0009,0.0051,0.005,0.005,0.0049,0,0.0651,0.0675,0.0758,0.0889,0.0978,0.1096,0.1216,0.1304,0.1396,0.1489,0.1588,0.1564,0.1277,0.0978,0.0548,0.0342,0.0137,0.0066,0.0099,0.0088,0.009,0.0048,0.0049,0.0046,0.0046,0.0046,0.0046,0.0047,0.0726,0.0795,0.0894,0.1019,0.1127,0.1259,0.1358,0.1488,0.1642,0.1764,0.1761,0.1721,0.1384,0.0833,0.0479,0.0103,0.012,-0.0037,-0.0033,-0.0029,-0.0015,-0.0016,-0.0078,-0.0079,-0.0079,-0.0079,-0.0079,0,0.0824,0.0898,0.1019,0.116,0.1275,0.1318,0.1494,0.1578,0.1747,0.1856,0.1911,0.1593,0.126,0.0873,0.0324,-0.0016,-0.0035,-0.0137,-0.0082,-0.0075,-0.007,-0.0056,-0.0132,-0.0133,-0.0135,-0.0136,0,0,0.0882,0.1007,0.1059,0.1253,0.1347,0.149,0.1579,0.1705,0.1807,0.1876,0.1865,0.1806,0.1367,0.0948,0.0502,0.0186,0.0126,0.0116,0.0196,0.0321,0.033,0.0027,0.0061,0,0,0,0,0]}],[{"header":{"parameterUnit":"m.s-1","parameterCategory":2,"la1":30.2991,"la2":30.254,"lo1":-89.0895,"lo2":-89.0444,"dy":0.0017,"dx":0.0017,"nx":28,"ny":28,"refTime":"2024-05-26T09:00:00:Z","depth":"4","parameterNumber":2,"parameterNumberName":"U-component_of_CURRENTS"},"data":[0,0,0,0,0,0,0,0,0,0,0,0,0,0,0,0,0,0,0,0,0,0,0,0,0,0,0,0,0,0,0,0,0,0,0,0,0,0,0,0,0,0,0,0,0,0,0,0,0,0,0,0,0,0,0,0,0,0,0.1777,0.1777,0,0.1789,0.179,0.179,0.186,0.1861,0.1863,0.1864,0.1939,0.194,0.194,0,0,0,0,0,0,0,0,0,0,0,0,0,0.1834,0.1833,0.1777,0.1777,0.1776,0.1789,0.179,0.1791,0.186,0.1862,0.1863,0.1865,0.1939,0.194,0.1941,0,0,0,0,0,0,0,0,0,0,0,0,0,0.1828,0.1833,0.1777,0.181,0.1812,0.1789,0.179,0.1791,0.186,0.1862,0.1864,0.1865,0.1938,0.194,0.1941,0.1909,0,0,0.1944,0.1945,0,0,0,0,0,0,0,0,0.1828,0.1827,0.1805,0.1807,0.181,0.1822,0.1837,0.1832,0.1859,0.1846,0.1864,0.1866,0.1901,0.1906,0.1909,0.1913,0.1916,0.1944,0.1945,0.1946,0.1946,0,0,0,0,0,0,0,0.1829,0.1826,0.1786,0.1804,0.1808,0.183,0.1832,0.1837,0.1867,0.1847,0.1851,0.1846,0.1904,0.1907,0.1911,0.1917,0.1944,0.1945,0.1946,0.1947,0.2067,0.207,0,0,0,0,0,0,0.1815,0.1826,0.1786,0.1786,0.182,0.1827,0.183,0.1819,0.1866,0.1873,0.1844,0.1849,0.1904,0.191,0.1914,0.2006,0.1946,0.1947,0.1947,0.2065,0.2068,0.207,0,0,0,0,0,0,0.1816,0.1811,0.1785,0.1804,0.1802,0.1824,0.1812,0.1818,0.1863,0.1862,0.1872,0.1886,0.1906,0.1912,0.1946,0.2005,0.1947,0.1948,0.2062,0.2066,0.2069,0.2109,0,0,0,0,0,0,0.1818,0.1811,0.1823,0.1802,0.18,0.1796,0.181,0.1817,0.1851,0.1859,0.19,0.1906,0.1908,0.1944,0.1947,0.2006,0.1949,0.2059,0.2063,0.2068,0.2105,0.2114,0.2122,0,0,0,0,0,0.182,0.1812,0.1823,0.1819,0.1807,0.1796,0.1799,0.1823,0.1852,0.1872,0.1897,0.1907,0.1978,0.1945,0.1948,0.2009,0.2056,0.2062,0.2068,0.2101,0.2112,0.2121,0,0,0,0,0,0,0.185,0.1817,0.1829,0.1816,0.1821,0.1807,0.1825,0.1842,0.1878,0.1896,0.191,0.1918,0.1964,0.1984,0.1948,0.2063,0.203,0.2037,0.2055,0.2065,0.2074,0.2126,0.195,0,0,0,0,0,0.1857,0.184,0.1827,0.1821,0.1827,0.1837,0.1845,0.1859,0.1871,0.1892,0.1929,0.1969,0.1982,0.2021,0.2029,0.2087,0.2113,0.214,0.2149,0.2156,0.2204,0.226,0.2278,0.2089,0.2089,0.2089,0,0,0.1865,0.1845,0.1839,0.1827,0.1836,0.1851,0.185,0.1863,0.1891,0.1891,0.1968,0.1979,0.1995,0.2048,0.2079,0.2084,0.2221,0.2163,0.2168,0.2214,0.2268,0.2286,0.2302,0.2093,0.2092,0.2091,0,0,0.186,0.1862,0.1852,0.1862,0.1869,0.1875,0.1889,0.191,0.1942,0.1982,0.1995,0.2061,0.2091,0.214,0.2155,0.2225,0.2236,0.2233,0.2349,0.2401,0.2417,0.2432,0.2473,0.2491,0.227,0.227,0.227,0,0.1885,0.1867,0.1854,0.1861,0.1879,0.1894,0.1916,0.1938,0.1977,0.2019,0.2019,0.2123,0.2143,0.2225,0.2266,0.2248,0.227,0.2297,0.2412,0.2426,0.2441,0.248,0.2499,0.2273,0.2273,0.2272,0.2272,0,0.1858,0.1885,0.1884,0.1901,0.192,0.1937,0.196,0.202,0.2064,0.2091,0.2183,0.2217,0.2309,0.2318,0.2316,0.2444,0.2421,0.2381,0.2379,0.2462,0.2498,0.2517,0.2277,0.2276,0.2275,0.2274,0,0,0.1827,0.1861,0.1875,0.1907,0.1948,0.1955,0.2027,0.2088,0.2151,0.222,0.2316,0.2386,0.2447,0.2476,0.2499,0.2572,0.2684,0.2548,0.2549,0.258,0.2799,0.2606,0.2608,0.2652,0.2656,0.2659,0.2777,0,0.1831,0.185,0.1876,0.194,0.1957,0.2026,0.2085,0.2149,0.2211,0.231,0.2388,0.2464,0.2487,0.2548,0.2633,0.2652,0.2741,0.2657,0.2726,0.2729,0.2539,0.2626,0.2672,0.2791,0.2795,0.2798,0.2801,0,0.18,0.1819,0.1866,0.1961,0.1981,0.2044,0.2163,0.2216,0.2345,0.2403,0.2537,0.2572,0.2732,0.2707,0.2865,0.2806,0.2847,0.2855,0.2858,0.2689,0.2573,0.2699,0.2835,0.2833,0.283,0.2828,0.2826,0,0.1743,0.1827,0.1866,0.1893,0.1988,0.2072,0.2153,0.2269,0.2328,0.2492,0.2561,0.2712,0.2813,0.2888,0.2958,0.2921,0.3081,0.3014,0.2887,0.2873,0.2991,0.2974,0.3145,0.3145,0.3145,0.3144,0.3144,0,0.1709,0.1749,0.1862,0.1882,0.1968,0.2056,0.2177,0.2277,0.2421,0.2496,0.2632,0.2718,0.2866,0.296,0.2999,0.301,0.3131,0.2942,0.2903,0.3001,0.2985,0.3003,0.2985,0.3149,0.3148,0.3147,0.3146,0,0.1621,0.1688,0.1747,0.1885,0.194,0.2008,0.2197,0.2264,0.2419,0.2535,0.2596,0.277,0.2896,0.2998,0.312,0.3048,0.3067,0.3046,0.3172,0.3131,0.2815,0.2799,0.2905,0.29,0.2895,0.2891,0.2888,0,0.1556,0.1573,0.1737,0.1783,0.1864,0.1992,0.207,0.2253,0.2316,0.2537,0.2566,0.2758,0.286,0.2885,0.3006,0.3061,0.3034,0.3008,0.2907,0.2847,0.2798,0.2789,0.2778,0.288,0.2879,0.2878,0.2877,0,0.1435,0.1522,0.1582,0.1697,0.18,0.1876,0.2015,0.2055,0.2245,0.2408,0.2488,0.2558,0.27,0.2787,0.2859,0.2887,0.2987,0.2958,0.2966,0.2872,0.2817,0.2772,0.2767,0.286,0.2863,0.2864,0.2865,0,0.1367,0.1376,0.1491,0.1584,0.1694,0.173,0.1826,0.1918,0.201,0.225,0.2284,0.2492,0.268,0.2702,0.2761,0.2778,0.2735,0.2614,0.2639,0.2659,0.2522,0.2413,0.233,0,0,0,0,0,0.1298,0.1291,0.1359,0.1445,0.1559,0.1628,0.1757,0.1848,0.2049,0.2046,0.2157,0.2277,0.2383,0.2489,0.2463,0.2657,0.2741,0.2609,0.2613,0.277,0.2789,0.2649,0,0,0,0,0,0,0.1246,0.1286,0.1309,0.1326,0.1367,0.1454,0.1538,0.1665,0.1671,0.189,0.1969,0.2126,0.2275,0.2393,0.2421,0.2453,0.24,0.2745,0.2738,0.2759,0.2776,0.2792,0.2654,0,0,0,0,0]},{"header":{"parameterUnit":"m.s-1","parameterCategory":2,"la1":30.2991,"la2":30.254,"lo1":-89.0895,"lo2":-89.0444,"dy":0.0017,"dx":0.0017,"nx":28,"ny":28,"refTime":"2024-05-26T09:00:00:Z","depth":"4","parameterNumber":3,"parameterNumberName":"V-component_of_CURRENTS"},"data":[0,0,0,0,0,0,0,0,0,0,0,0,0,0,0,0,0,0,0,0,0,0,0,0,0,0,0,0,0,0,0,0,0,0,0,0,0,0,0,0,0,0,0,0,0,0,0,0,0,0,0,0,0,0,0,0,0,0,-0.0013,-0.0013,0,0.0003,0.0003,0.0004,-0.0024,-0.0025,-0.0026,-0.0027,-0.0061,-0.0061,-0.0062,0,0,0,0,0,0,0,0,0,0,0,0,0,-0.0047,-0.0046,-0.0013,-0.0013,-0.0013,0.0003,0.0003,0.0004,-0.0024,-0.0025,-0.0026,-0.0027,-0.0061,-0.0061,-0.0062,0,0,0,0,0,0,0,0,0,0,0,0,0,-0.0033,-0.0046,-0.0013,-0.0023,-0.0024,0.0003,0.0003,0.0004,-0.0024,-0.0025,-0.0026,-0.0027,-0.0061,-0.0061,-0.0062,-0.0038,0,0,-0.0062,-0.0062,0,0,0,0,0,0,0,0,-0.0033,-0.0031,-0.0022,-0.0023,-0.0023,-0.0013,-0.0021,-0.0012,-0.0023,-0.0025,-0.0027,-0.0028,-0.0048,-0.0049,-0.0045,-0.004,-0.0041,-0.0062,-0.0062,-0.0063,-0.0063,0,0,0,0,0,0,0,-0.0034,-0.0032,-0.0008,-0.0022,-0.0022,-0.0021,-0.0021,-0.0019,-0.0032,-0.0025,-0.0027,-0.0023,-0.0049,-0.0044,-0.0046,-0.0042,-0.0062,-0.0063,-0.0063,-0.0063,-0.007,-0.007,0,0,0,0,0,0,-0.0033,-0.0033,-0.0008,-0.0007,-0.003,-0.002,-0.0019,-0.0016,-0.0031,-0.0033,-0.0022,-0.0024,-0.0043,-0.0045,-0.0047,-0.0036,-0.0063,-0.0063,-0.0063,-0.007,-0.007,-0.007,0,0,0,0,0,0,-0.0034,-0.0031,-0.0009,-0.0019,-0.0016,-0.0018,-0.0014,-0.0015,-0.0014,-0.0027,-0.0031,-0.002,-0.0044,-0.0047,-0.0039,-0.0037,-0.0063,-0.0063,-0.007,-0.007,-0.007,-0.0004,0,0,0,0,0,0,-0.0035,-0.0032,-0.003,-0.0019,-0.0015,0.0016,-0.0012,-0.0014,-0.0008,-0.0011,-0.0026,-0.0031,-0.0045,-0.0038,-0.0039,-0.0038,-0.0063,-0.007,-0.007,-0.007,-0.0006,-0.0002,0.0002,0,0,0,0,0,-0.0037,-0.0016,-0.003,-0.0027,-0.0012,0.0017,0.0019,0.0012,-0.0007,0.0006,-0.0007,-0.0031,-0.0041,-0.0037,-0.0039,-0.0038,-0.007,-0.007,-0.007,-0.0008,-0.0003,0.0002,0,0,0,0,0,0,-0.0025,-0.0017,-0.0032,-0.0011,0.0001,0.0013,0.0028,0.0017,0.0018,0.0013,-0.0013,-0.0016,-0.0016,-0.0034,-0.0029,-0.0044,-0.0067,-0.0067,-0.002,-0.0015,-0.0011,0.0006,-0.0063,0,0,0,0,0,-0.0023,-0.0009,-0.0003,0.0015,0.0022,0.0021,0.003,0.0028,0.0032,0.0031,0.0017,-0.0003,-0.0015,-0.0019,-0.0031,-0.0022,-0.0048,-0.0031,-0.0027,-0.0023,-0.0013,-0.0044,-0.0041,-0.007,-0.007,-0.007,0,0,-0.0016,-0.0007,-0.0001,0.0017,0.0025,0.0048,0.0024,0.0049,0.0062,0.0028,0.0041,0.0017,-0.0011,-0.0007,-0.0011,-0.0021,-0.0031,-0.0023,-0.002,-0.0011,-0.0044,-0.0041,-0.0038,-0.0071,-0.0071,-0.007,0,0,0.0026,0.0017,0.0046,0.0057,0.0076,0.0075,0.0082,0.0093,0.0091,0.0107,0.0073,0.006,0.0047,0.0029,0.0016,0.0037,-0.0008,0.0015,0.0055,0.0024,0.0027,0.0029,-0.0003,-0.0005,0.0018,0.0018,0.0018,0,0.0033,0.0068,0.0061,0.0093,0.0109,0.0088,0.0124,0.0123,0.0132,0.0136,0.0118,0.0091,0.0066,0.0064,0.0062,0.0048,0.0018,0.0044,0.0032,0.0033,0.0034,-0.0,-0.0002,0.0021,0.0021,0.0021,0.002,0,0.0099,0.012,0.0143,0.0167,0.0181,0.0214,0.021,0.0218,0.0205,0.0196,0.0194,0.0165,0.015,0.0126,0.0102,0.0091,0.0063,0.0042,0.0025,0.0041,0.0004,0.0,0.0026,0.0025,0.0024,0.0023,0,0,0.0135,0.018,0.0187,0.0212,0.0225,0.0251,0.0268,0.0284,0.03,0.028,0.0296,0.0259,0.0233,0.0216,0.0177,0.0144,0.0118,0.0097,0.0094,0.0076,0.0045,0.0027,0.0021,0.0091,0.009,0.009,0.0016,0,0.0189,0.0263,0.0269,0.033,0.0364,0.0351,0.0372,0.0376,0.0367,0.0372,0.0325,0.0323,0.0269,0.0266,0.0225,0.0144,0.0112,0.014,0.0023,0.002,0.0011,0.0017,0.009,0.0013,0.0012,0.0011,0.0011,0,0.0253,0.0293,0.0367,0.0415,0.043,0.0458,0.0491,0.0517,0.05,0.049,0.0469,0.0423,0.0378,0.033,0.0215,0.0232,0.015,0.0082,0.0077,0.0038,-0.0005,-0.0008,0.0004,0.0004,0.0005,0.0005,0.0006,0,0.0293,0.0362,0.0426,0.0442,0.0488,0.0521,0.0549,0.0553,0.0589,0.0572,0.0578,0.0508,0.0485,0.0373,0.0229,0.0221,0.009,0.0064,-0.0027,-0.003,-0.002,-0.0021,-0.001,-0.001,-0.001,-0.001,-0.0009,0,0.035,0.0399,0.0452,0.0489,0.0567,0.0581,0.0661,0.0669,0.0692,0.0733,0.0653,0.0652,0.0492,0.0393,0.0255,0.0103,0.0113,-0.0015,-0.0047,0.0007,0.001,-0.0023,-0.0024,-0.0013,-0.0012,-0.0011,-0.0011,0,0.0388,0.0419,0.0498,0.0564,0.0592,0.0654,0.0747,0.0797,0.0806,0.0855,0.0854,0.0762,0.0631,0.046,0.0271,0.0151,-0.0002,-0.0058,0.0015,-0.0013,-0.0109,-0.0105,-0.0159,-0.016,-0.0161,-0.0162,-0.0162,0,0.0415,0.046,0.0561,0.0612,0.0649,0.0742,0.0803,0.0852,0.0901,0.092,0.0936,0.0834,0.0746,0.0473,0.028,0.0024,-0.0018,-0.0104,-0.0108,-0.0096,-0.0122,-0.0117,-0.0112,-0.0164,-0.0164,-0.0164,-0.0165,0,0.0459,0.0497,0.0563,0.0673,0.0751,0.0846,0.0933,0.0976,0.1029,0.1039,0.1005,0.0864,0.0712,0.0484,0.0282,0.0095,-0.0054,-0.0115,-0.0114,-0.0119,-0.0104,-0.0127,-0.0121,-0.0168,-0.0168,-0.0167,-0.0167,0,0.0492,0.0538,0.0623,0.0725,0.0822,0.0905,0.096,0.1011,0.1064,0.1074,0.106,0.0897,0.0806,0.0521,0.0335,0.0147,0.0096,0.0023,0.0015,0.0017,0.008,0.0126,0.0112,0,0,0,0,0,0.0513,0.0561,0.0661,0.0759,0.0861,0.0918,0.1019,0.1061,0.1107,0.1096,0.1085,0.0944,0.0674,0.0552,0.0365,0.0297,0.0049,0.0067,-0.0043,-0.0187,-0.0183,-0.0142,0,0,0,0,0,0,0.052,0.0603,0.0655,0.077,0.084,0.0947,0.1014,0.1053,0.1045,0.1063,0.0926,0.0876,0.0613,0.078,0.0353,0.0297,0.0196,-0.0051,-0.0056,-0.019,-0.0186,-0.0183,-0.0139,0,0,0,0,0]}]]